This is the latest recevied weather packets stored in our database for station/object KO4APQ. If no packets are shown the sender has not sent any weather packets the latest 10 day(s).
| Time | Temp. | Humidity | Pressure | Rain* | Wind** | Luminosity | Snow |
|---|---|---|---|---|---|---|---|
| 1777567042 | 21.11° C | 70% | 1011.6 hPa | 0 mm | - | 492 W/m² | - |
| 1777566740 | 20.56° C | 71% | 1011.7 hPa | 0 mm | - | 404 W/m² | - |
| 1777566437 | 20.56° C | 68% | 1011.6 hPa | 0 mm | - | 526 W/m² | - |
| 1777566135 | 20.56° C | 71% | 1011.6 hPa | 0 mm | - | 431 W/m² | - |
| 1777565829 | 20° C | 72% | 1011.6 hPa | 0 mm | - | 331 W/m² | - |
| 1777565526 | 20° C | 71% | 1011.8 hPa | 0 mm | - | 259 W/m² | - |
| 1777565223 | 20° C | 72% | 1011.6 hPa | 0 mm | - | 258 W/m² | - |
| 1777564919 | 20.56° C | 72% | 1011.8 hPa | 0 mm | - | 358 W/m² | - |
| 1777564614 | 20.56° C | 72% | 1011.9 hPa | 0 mm | - | 393 W/m² | - |
| 1777564310 | 20.56° C | 72% | 1011.9 hPa | 0 mm | - | 464 W/m² | - |
| 1777564006 | 20.56° C | 73% | 1011.8 hPa | 0 mm | - | 468 W/m² | - |
| 1777563702 | 20.56° C | 73% | 1011.9 hPa | 0 mm | - | 415 W/m² | - |
| 1777563398 | 20.56° C | 73% | 1011.9 hPa | 0 mm | - | 564 W/m² | - |
| 1777563093 | 20° C | 73% | 1012.1 hPa | 0 mm | - | 744 W/m² | - |
| 1777562789 | 20° C | 72% | 1012.1 hPa | 0 mm | - | 351 W/m² | - |
| 1777562487 | 20° C | 71% | 1011.9 hPa | 0 mm | - | 334 W/m² | - |
| 1777562185 | 20.56° C | 73% | 1012.1 hPa | 0 mm | - | 310 W/m² | - |
| 1777561882 | 20° C | 73% | 1011.9 hPa | 0 mm | - | 760 W/m² | - |
| 1777561579 | 20° C | 76% | 1012 hPa | 0 mm | - | 483 W/m² | - |
| 1777561275 | 19.44° C | 74% | 1012.2 hPa | 0 mm | - | 368 W/m² | - |
| 1777560975 | 20° C | 75% | 1012 hPa | 0 mm | - | 471 W/m² | - |
| 1777560670 | 20° C | 75% | 1011.8 hPa | 0 mm | - | 891 W/m² | - |
| 1777560368 | 19.44° C | 76% | 1011.7 hPa | 0 mm | - | 546 W/m² | - |
| 1777560066 | 19.44° C | 78% | 1012 hPa | 0 mm | - | 923 W/m² | - |
| 1777559761 | 18.89° C | 81% | 1011.9 hPa | 0 mm | - | 878 W/m² | - |
* Rain latest hour (hover to see other rain measurements)
** Current wind speed in m/s (hover to see current wind gust speed)